Theta_e
305 300 297 299 301 299 299 297 295 298 300 299 299 298 296 297 295 296 299 304 306 308 304 304 312 320 319 318 316 315 314 314 314 312 311 311 311 311 311 312 312 311 311 310
300 294 302 304 303 300 299 297 294 298 300 299 296 296 297 297 296 295 296 298 303 301 301 303 306 309 311 312 316 316 315 314 312 310 312 313 312 311 310 310 311 311 310 308
296 296 302 303 301 298 298 296 293 294 297 297 294 293 293 294 295 293 295 297 298 300 300 301 302 302 303 304 306 307 309 310 310 311 311 309 308 307 306 306 306 305 305 305
293 298 300 299 298 300 295 301 298 295 294 289 295 287 293 293 291 292 294 294 296 298 299 300 300 300 301 301 304 304 304 305 305 307 307 307 307 307 306 303 302 302 302 302
289 293 299 298 298 300 297 301 298 297 294 292 290 287 292 291 288 290 293 294 296 298 298 298 299 299 299 299 299 300 301 301 302 302 303 302 300 300 300 298 296 296 296 297
292 297 295 296 298 300 299 295 293 293 292 285 290 289 290 285 291 292 292 295 296 296 296 298 299 298 297 296 297 297 296 296 297 297 297 296 295 294 293 292 292 292 292 294
290 291 294 295 294 297 296 293 284 283 282 283 286 288 293 293 292 293 294 294 295 296 296 296 296 295 295 294 294 293 292 292 292 292 293 293 293 291 291 290 290 289 289 289
286 283 290 293 291 292 292 292 286 280 279 280 285 284 290 294 295 294 295 296 295 296 296 295 294 293 293 292 291 290 290 290 290 291 291 290 291 289 289 288 288 288 288 288
285 284 292 293 293 293 289 287 290 283 279 277 280 282 286 287 289 292 293 294 295 294 293 293 293 292 291 290 290 290 289 290 289 289 289 288 287 287 286 286 287 286 286 288
288 282 290 292 294 293 291 292 285 284 278 275 278 278 281 284 287 290 291 293 294 293 292 292 292 291 291 290 290 288 287 288 287 287 287 287 286 286 286 285 284 284 285 286
292 288 286 290 288 287 288 286 287 287 284 279 277 281 284 285 288 290 291 293 292 291 291 291 291 291 289 288 286 286 286 285 284 285 284 285 285 285 284 283 283 284 284 284
292 287 283 285 287 292 290 288 288 284 281 281 278 278 285 287 288 291 291 291 291 291 291 291 291 289 286 286 285 285 285 284 284 284 284 284 284 283 283 282 283 284 284 285
289 281 276 281 285 285 287 288 289 287 283 279 276 278 287 287 289 291 291 291 291 290 289 290 290 289 286 285 285 285 285 284 284 284 283 283 283 282 282 283 283 284 283 283
290 283 282 279 281 283 281 284 287 287 280 280 280 281 284 286 287 289 291 290 290 290 290 290 290 289 286 286 285 284 284 283 283 283 282 282 282 282 282 283 283 282 282 282
285 276 279 281 281 282 282 283 285 284 286 280 282 283 288 286 288 289 291 290 290 290 288 289 290 289 288 286 285 284 284 283 283 283 282 282 282 282 282 282 282 282 281 282
283 274 278 272 280 280 277 281 282 285 286 286 287 286 293 289 289 289 290 290 290 290 290 290 290 289 288 287 285 284 283 283 283 282 282 282 282 282 282 281 281 281 280 280
279 275 269 269 273 271 270 277 281 282 284 286 283 288 288 288 288 288 289 290 291 291 291 290 290 290 290 287 286 284 283 283 282 282 282 281 281 281 281 281 280 280 280 280
271 269 263 266 265 264 277 280 281 282 284 285 285 286 287 289 289 289 290 290 291 292 292 291 291 289 288 287 285 284 283 282 282 282 281 281 281 280 280 280 280 279 279 279
280 275 264 267 258 271 278 276 277 278 278 282 283 285 286 284 285 287 289 291 292 292 292 292 291 288 286 285 284 283 282 281 281 281 281 280 280 279 279 279 279 279 279 279
280 276 270 256 262 263 275 276 279 279 272 278 280 281 281 283 280 283 286 289 290 290 289 287 286 285 285 284 283 282 281 280 280 280 280 280 280 279 278 278 278 279 279 279
276 268 264 261 260 269 277 278 279 270 275 277 278 280 279 281 284 286 285 285 287 287 286 286 285 285 284 282 282 281 280 280 280 280 280 279 279 279 278 278 278 278 278 278
274 271 264 258 262 269 279 278 275 279 279 278 278 280 282 283 284 284 284 282 285 285 285 283 282 282 281 281 281 280 280 280 279 279 278 277 277 278 278 277 277 277 276 276
275 275 273 273 274 278 279 280 280 281 281 279 279 280 281 282 283 283 283 282 282 283 282 282 282 280 279 280 280 280 279 279 277 275 273 273 274 276 276 276 275 275 275 275
275 274 273 274 278 279 280 281 280 281 281 282 281 281 281 282 283 283 282 281 282 281 281 281 280 279 278 279 279 279 278 276 273 272 272 273 273 273 274 275 275 274 274 274
276 278 274 275 281 282 282 282 284 284 282 282 281 282 283 282 282 282 282 281 281 281 281 280 280 279 278 278 277 276 275 272 272 272 272 273 273 272 273 273 273 274 275 277
276 278 279 279 284 285 285 284 284 283 283 283 282 279 279 281 282 281 281 280 280 280 279 279 278 277 277 276 273 270 268 270 271 271 272 272 272 271 271 271 272 277 278 279
Wind_Speed
7 2 8 12 5 5 9 10 5 2 8 5 13 6 6 1 3 5 7 7 7 7 1 2 3 4 3 4 5 6 6 4 4 2 1 0 1 1 1 2 3 2 3 4
6 12 10 10 7 7 14 12 6 4 7 4 5 11 6 6 5 6 8 8 8 4 3 2 3 5 5 4 4 5 5 4 2 2 2 2 2 2 1 1 3 4 5 5
9 2 3 11 9 9 10 17 8 7 5 2 2 6 5 4 3 3 5 6 4 7 6 4 4 5 5 6 5 5 5 5 4 1 2 2 2 1 2 4 3 4 6 5
7 3 8 15 9 9 7 2 10 15 10 4 5 5 7 11 8 6 8 7 7 7 4 4 5 4 5 4 5 6 6 6 5 5 4 3 2 2 2 1 2 4 6 6
1 5 8 20 11 5 4 5 10 8 10 5 5 3 3 5 10 12 13 10 8 7 7 7 7 6 5 5 6 6 6 6 6 6 6 5 5 2 2 2 5 6 6 6
4 3 4 3 6 5 10 9 7 5 3 5 7 10 5 7 15 15 7 12 10 9 7 6 6 7 6 5 6 6 7 6 6 7 7 7 7 4 4 3 3 4 3 4
7 5 2 4 9 3 2 6 2 2 3 4 3 7 10 7 8 8 15 10 9 9 9 7 8 7 7 7 7 6 7 6 6 7 7 6 6 5 4 2 2 4 3 2
3 2 7 7 4 2 3 1 5 6 5 2 2 9 7 5 5 6 9 14 11 10 9 8 8 7 8 7 7 7 7 7 6 6 5 4 5 3 2 1 1 2 2 4
5 3 0 4 3 4 3 2 2 5 2 2 5 6 10 3 5 6 10 13 16 13 10 9 7 7 7 7 7 7 7 5 5 5 4 3 3 2 0 2 2 3 4 4
1 5 3 2 1 8 4 5 3 1 5 5 4 5 7 4 6 6 12 16 15 12 10 9 8 8 6 7 6 6 6 6 5 4 2 1 0 1 2 3 5 5 5 5
4 2 2 0 2 4 2 2 3 2 1 2 3 6 5 6 9 13 11 13 14 12 11 10 8 8 8 7 7 6 6 6 5 3 2 1 1 2 3 4 5 6 5 6
2 4 3 1 3 1 3 3 3 3 4 3 1 8 1 7 7 9 9 8 9 10 10 10 10 9 8 8 7 7 6 6 5 3 2 2 3 3 4 5 6 5 6 6
5 1 4 1 1 3 3 5 3 1 2 6 5 6 2 5 6 5 9 10 11 10 9 7 8 10 9 8 7 7 6 5 4 3 2 3 4 4 5 6 6 6 6 6
2 2 3 5 3 5 5 6 11 5 2 2 6 6 6 3 4 7 8 9 10 11 10 10 7 8 8 7 7 7 6 5 4 2 2 3 4 5 6 6 7 6 6 7
2 4 1 0 1 1 2 4 12 10 11 6 2 11 13 4 7 8 7 7 10 13 10 12 11 9 8 7 7 6 6 5 4 3 4 4 5 5 6 6 6 6 7 7
2 2 2 3 3 2 3 6 9 16 17 18 17 25 13 7 3 6 11 14 14 16 16 14 12 10 10 10 8 7 6 6 5 3 3 3 5 5 6 6 7 7 7 7
4 6 4 6 3 4 6 14 17 8 7 11 14 22 5 6 11 10 9 13 16 17 17 15 15 15 12 10 9 8 7 5 5 3 3 3 4 6 6 6 6 7 7 7
5 5 3 4 4 3 9 5 5 15 12 13 12 12 5 7 8 7 9 15 17 15 15 16 13 10 8 7 7 7 7 6 5 3 2 3 4 5 6 6 7 7 6 8
2 5 3 5 5 8 8 3 6 7 8 6 16 18 11 3 1 12 8 9 14 15 14 14 11 7 8 8 8 8 7 6 5 1 3 4 5 6 6 7 9 9 7 8
4 6 5 3 5 7 7 2 3 2 6 4 2 8 7 6 6 4 5 8 12 9 7 8 9 7 9 7 9 9 7 5 2 3 3 4 4 4 6 7 8 8 7 9
3 3 6 2 2 11 8 4 4 8 8 1 2 6 3 5 5 5 6 2 2 4 7 9 9 9 9 8 8 8 7 5 4 4 4 4 5 5 5 5 6 8 8 8
10 9 5 4 4 11 8 5 7 8 3 2 2 5 5 6 9 7 6 2 6 8 7 8 10 9 8 8 8 8 7 6 6 5 5 5 5 4 5 5 6 8 8 9
4 9 9 11 10 4 7 6 3 3 3 3 2 4 4 4 5 6 4 3 3 7 8 7 12 10 6 6 6 8 5 6 5 5 4 2 3 3 5 6 7 7 7 7
4 4 3 3 7 11 9 6 5 5 7 5 5 5 1 4 5 7 2 2 4 5 7 7 11 9 7 6 7 7 7 6 6 6 3 2 3 5 5 4 4 5 6 8
4 7 7 6 10 4 9 10 7 10 7 8 4 6 7 5 6 5 4 6 6 6 6 7 9 8 8 8 8 6 6 6 6 5 3 4 3 4 4 5 3 4 5 8
7 8 7 7 7 5 5 4 5 7 7 6 7 4 6 6 6 2 4 4 6 7 6 6 7 8 8 8 8 5 3 5 6 5 4 3 2 2 1 3 6 11 12 13
Wind_Direction
117 215 191 177 181 124 152 180 138 153 166 157 207 239 240 162 148 232 240 233 231 230 300 348 314 226 141 122 139 141 139 142 134 127 145 221 278 23 61 37 14 353 326 324
125 234 194 162 154 147 161 168 150 69 130 206 183 230 198 192 199 193 215 231 224 197 151 80 61 58 54 71 89 113 133 168 168 98 89 103 120 82 71 349 13 33 3 353
181 39 125 166 160 174 190 184 170 138 133 69 63 285 198 211 205 191 236 226 217 202 178 134 109 96 95 82 73 82 69 70 60 102 98 72 63 52 26 21 6 359 7 10
76 314 188 184 205 202 185 130 160 141 144 206 178 269 226 191 207 206 217 217 207 189 164 143 137 115 106 95 85 79 74 74 61 64 89 109 122 112 72 8 343 359 13 5
270 6 167 176 182 178 229 126 146 161 174 134 183 266 218 187 210 215 213 211 199 188 181 163 152 133 113 105 96 95 89 73 70 79 90 95 89 74 51 24 20 10 0 12
50 359 28 35 71 89 122 85 58 66 89 251 178 198 206 182 208 218 199 202 178 166 157 148 125 126 117 113 107 107 99 81 72 75 72 85 90 79 60 24 12 358 342 336
4 21 5 4 86 48 29 122 91 128 188 238 321 221 258 240 234 213 206 183 158 156 149 162 150 147 136 129 123 118 107 92 84 84 81 89 96 89 92 54 354 336 314 292
128 104 10 348 36 157 138 116 172 187 194 185 9 236 242 254 211 200 178 163 148 156 163 168 163 154 143 140 136 129 122 113 111 112 115 121 124 124 121 167 260 281 279 292
131 83 276 49 28 356 165 113 20 90 45 60 214 279 281 236 240 175 154 153 163 170 168 166 163 157 151 150 150 142 133 134 128 128 134 109 99 104 58 320 284 285 294 292
133 109 31 63 50 36 31 136 112 51 151 247 266 278 249 274 240 188 176 172 167 166 159 162 164 164 165 160 153 146 153 153 151 133 126 124 66 352 316 312 306 305 307 314
95 76 74 354 181 160 129 139 74 102 169 231 299 261 210 269 219 199 186 177 169 164 167 166 169 172 168 160 163 166 161 141 134 140 176 219 315 299 297 305 313 322 312 302
109 99 111 85 38 60 99 165 155 159 194 224 291 278 280 280 244 158 169 164 168 171 168 170 172 167 170 178 174 180 167 150 151 171 207 259 279 330 335 319 310 301 297 300
180 288 102 138 265 24 211 171 196 11 120 211 157 259 358 18 81 150 167 166 170 169 168 172 165 179 183 185 179 184 186 168 150 174 241 305 330 321 305 298 295 302 302 301
112 119 182 185 172 126 196 182 187 185 198 201 221 284 268 84 166 191 180 167 173 185 183 180 184 190 194 184 185 191 193 173 164 186 269 296 300 313 308 306 313 315 313 305
111 191 146 292 104 183 219 187 185 204 220 230 172 232 266 201 204 209 192 168 181 194 187 190 193 195 193 190 193 192 196 176 157 209 262 299 320 319 317 319 312 307 304 304
36 262 92 303 307 274 263 235 205 217 233 244 253 270 250 228 178 184 191 183 196 203 205 197 193 190 193 195 192 191 181 185 176 212 280 316 325 314 309 309 313 311 307 303
143 136 89 265 354 356 318 219 207 201 220 214 221 239 137 242 232 220 203 195 204 206 202 193 195 200 195 184 181 188 177 150 161 216 273 310 313 321 322 317 318 317 317 310
128 95 81 225 20 330 238 175 188 216 242 226 266 270 201 240 245 239 205 196 209 209 205 202 194 189 170 163 167 120 137 147 166 222 281 334 341 327 325 321 314 318 319 314
43 115 96 142 193 297 294 149 162 172 280 237 238 261 278 237 166 254 210 211 215 207 203 201 188 159 135 152 140 132 136 149 171 214 358 3 356 339 331 333 331 320 317 325
47 60 115 76 139 207 239 181 204 146 307 14 284 284 288 176 219 265 221 198 210 195 173 160 135 115 132 145 140 133 148 150 112 53 30 18 6 349 335 323 316 318 325 326
136 27 155 152 222 287 241 152 160 88 234 298 280 281 292 205 223 279 329 175 171 142 136 134 133 139 137 138 126 125 133 115 114 81 52 29 15 345 313 315 325 328 333 335
163 149 184 86 80 273 157 97 159 209 216 231 298 310 331 258 308 311 333 98 141 134 131 119 116 120 132 136 129 137 127 122 93 82 55 28 7 344 343 333 337 340 348 351
195 180 177 182 207 248 224 218 208 147 190 239 271 320 309 282 265 321 346 48 94 130 121 118 125 123 122 125 120 123 127 113 102 82 64 18 319 1 355 356 348 350 358 359
258 162 158 87 253 229 245 267 227 212 229 234 217 250 239 275 271 259 337 126 134 137 137 134 131 132 128 121 95 109 115 113 107 102 96 67 31 16 1 352 356 354 360 356
199 141 169 269 277 298 247 229 243 239 235 258 251 224 230 234 263 237 215 186 178 163 145 145 143 141 142 129 104 101 114 124 111 106 93 59 43 25 355 345 348 358 0 358
187 184 176 214 213 182 257 159 190 226 248 228 214 265 241 221 241 229 245 200 167 162 151 143 141 130 131 113 108 114 125 120 124 109 88 71 57 22 360 359 348 17 26 23